Location: Urbach
(48.8105°N, 9.5763°E)
Time: 17:32:20
(UTC+00:00)

Daily predictions for brighter satellites

Satellite Brightness Start Highest point End
(mag) Time Altitude Azimuth Time Altitude Azimuth Time Altitude Azimuth
S3M 4.5 19:56:57 10° N 20:03:09 49° ENE 20:09:14 10° SSE
Spot 2 Rocket 4.0 20:00:59 10° SE 20:05:50 49° ENE 20:10:44 10° N
Cosmos 1441 Rocket 3.0 20:09:52 10° N 20:13:29 73° ENE 20:17:05 10° SSE
Okean-O 3.5 20:09:40 10° S 20:13:56 49° W 20:18:14 10° NNW
Cosmos 2360 Rocket 3.2 20:09:40 10° NNW 20:14:55 37° NE 20:20:09 10° ESE
ATLAS 2AS CENTAUR R/B 3.4 20:09:56 10° NW 20:16:37 48° NE 20:23:02 10° ESE
Cosmos 2266 Rocket 4.3 20:12:04 10° SSE 20:18:09 53° E 20:24:21 10° NNE
Cosmos 1733 Rocket 4.4 20:14:48 10° NNE 20:18:34 27° ENE 20:22:18 10° SE
Cosmos 1300 3.9 20:16:56 10° NNE 20:19:59 26° ENE 20:23:01 10° SE
USA 245 3.2 20:19:06 10° SSE 20:22:29 83° ENE 20:26:49 10° NNW
Cosmos 2333 Rocket 3.1 20:17:58 10° NNW 20:23:21 39° NE 20:28:44 10° ESE
Cosmos 1674 3.6 20:20:02 10° SSW 20:23:23 46° WNW 20:26:44 10° N
SL-16 R/B 2.3 20:18:30 10° NNW 20:24:13 75° ENE 20:29:51 10° SE
Cosmos 1515 Rocket 4.2 20:20:27 10° SSW 20:24:42 58° WNW 20:29:00 10° N
In-Cosmos 22 4.3 20:19:27 10° S 20:25:00 63° E 20:30:28 10° NNE
Cosmos 1908 3.2 20:22:20 10° NNW 20:25:56 76° W 20:29:32 10° S
Cosmos 1470 3.4 20:22:30 10° NNW 20:26:06 51° W 20:29:41 10° S
Cosmos 468 Rocket 4.4 20:22:18 10° NNW 20:27:29 63° WSW 20:32:35 10° S
Atlas Centaur 2 4.3 20:23:29 10° SW 20:29:07 20° S 20:34:35 10° SE
Cosmos 2082 Rocket 3.0 20:23:39 10° SW 20:29:16 58° WNW 20:34:55 10° NNE
Ariane Rocket 3.1 20:25:20 10° SSE 20:30:24 74° ENE 20:35:30 10° NNW
Cosmos 2228 Rocket 4.0 20:28:19 10° SSE 20:32:24 34° E 20:36:32 10° NNE
SL-14 R/B 4.1 20:29:38 10° SSE 20:32:54 31° E 20:36:17 10° NNE
RESURS DK-1 2.6 20:31:44 10° NNW 20:35:47 61° ENE 20:39:23 13° SE
Okean O Rocket 4.2 20:33:30 10° SW 20:36:28 18° W 20:39:26 10° NW
Tiangong 0.1 20:36:50 10° SW 20:38:24 13° SSW 20:39:45 11° S
Cosmos 1869 Rocket 3.7 20:36:22 10° NNW 20:40:49 77° W 20:45:15 10° S
Cosmos 1850 Rocket 4.5 20:36:47 10° S 20:41:39 40° ESE 20:46:30 10° NE
Cosmos 1346 Rocket 3.4 20:39:44 10° N 20:43:27 42° ENE 20:46:26 14° SE
Terra 2.0 20:39:59 10° S 20:44:41 70° WSW 20:49:24 10° NNW
SPOT 3 Rocket 3.6 20:40:43 10° SSE 20:45:51 90° SW 20:51:04 10° NNW
USA 281 4.1 20:42:27 10° ESE 20:48:29 40° NE 20:54:32 10° NNW
Timation 1 Rocket 4.4 20:44:19 10° S 20:50:08 59° ESE 20:56:00 10° NE
EXPRESS MD2 1.8 20:50:41 10° WSW 20:53:23 73° SSE 20:55:33 10° ENE
Meteor 1-22 Rocket 4.4 20:49:08 10° NNW 20:54:44 75° W 21:00:31 10° S
Cosmos 2315 Rocket 4.1 20:50:00 10° N 20:56:24 79° E 21:02:15 13° SSE
Cosmos 1758 3.2 20:54:07 10° N 20:58:03 79° E 21:01:09 16° SSE
Cosmos 1741 Rocket 4.2 20:55:38 10° S 21:00:45 56° ESE 21:05:57 10° NNE
Landsat 4 4.2 21:00:47 12° S 21:03:49 47° W 21:07:10 10° NNW
Cosmos 968 Rocket 3.9 20:59:28 12° S 21:03:56 43° ESE 21:08:50 10° NE
Cosmos 2322 Rocket 2.2 21:02:22 10° NNW 21:08:05 83° WSW 21:12:36 17° SSE
Cosmos 1814 Rocket 4.4 21:03:02 10° NNW 21:08:15 56° ENE 21:12:20 17° SE
Cosmos 1356 Rocket 3.4 21:06:07 13° S 21:09:51 71° E 21:14:03 10° NNE
SeaSat 1 3.8 21:08:00 10° S 21:12:18 30° WSW 21:16:38 10° NW
Cosmos 1862 Rocket 3.6 21:11:25 15° S 21:14:56 65° E 21:19:20 10° NNE
Meteor 1-21 4.3 21:13:03 12° S 21:18:30 74° E 21:24:19 10° NNE
MOS 1 Rocket 4.4 21:14:24 10° S 21:19:36 47° W 21:24:43 10° NNW
Okean 2 4.1 21:19:14 21° SE 21:21:18 35° E 21:24:58 10° NNE
USA 234 3.4 21:15:54 10° NE 21:22:27 78° NNW 21:28:58 10° WSW
BREEZE-M DEB (TANK) 4.3 21:00:58 10° WSW 21:22:58 87° SSE 21:27:51 10° ENE
Cosmos 1400 Rocket 3.9 21:23:05 10° SW 21:26:47 40° WNW 21:30:27 10° N
Cosmos 1455 2.9 21:24:38 10° N 21:27:55 36° ENE 21:29:35 22° SE
SL-4 R/B 2.6 21:24:57 10° W 21:28:49 56° N 21:32:56 10° E
COSMOS 2428 3.9 21:23:39 10° NNW 21:28:53 36° NE 21:33:46 11° ESE
Meteor 2-10 Rocket 4.4 21:26:12 10° NNW 21:31:35 49° W 21:36:16 13° SSW
Landsat 5 3.7 21:30:21 10° N 21:34:18 68° WNW 21:38:06 12° SSW
Cosmos 2219 Rocket 2.3 21:29:46 10° NNW 21:35:28 71° ENE 21:39:27 20° SE
Cosmos 1707 Rocket 3.9 21:31:38 12° SSW 21:35:45 66° W 21:40:12 10° N
ATLAS CENTAUR R/B 0.8 21:35:31 10° SW 21:39:01 85° SE 21:42:38 10° NE
ARIANE 5 R/B 2.8 21:39:26 23° SE 21:41:57 61° ENE 21:46:14 10° N
Cosmos 1315 Rocket 2.9 21:39:54 25° SSE 21:42:00 57° E 21:45:56 10° NNE
SJ 16-02 1.2 21:39:28 19° S 21:42:27 69° ESE 21:46:46 10° NNE
Meteor 1-4 Rocket 1.9 21:41:42 32° S 21:42:56 81° ESE 21:45:57 10° NNE
SL-27 R/B 2.4 21:41:51 18° SW 21:43:40 57° WNW 21:46:26 10° NNE
Okean 3 3.5 21:41:42 18° SSW 21:44:44 77° W 21:48:55 10° N
Cosmos 1953 2.2 21:41:50 10° N 21:45:40 70° E 21:47:31 29° SSE
Aureole 3 3.8 21:49:38 18° SSW 21:52:27 64° WNW 21:57:11 10° N
Cosmos 1300 4.5 21:51:44 10° NW 21:54:36 23° W 21:57:03 12° SW
Cosmos 1733 Rocket 4.3 21:52:20 10° NNW 21:56:20 35° W 21:59:30 15° SSW
Nadezhda 1 Rocket 4.2 21:51:19 10° N 21:57:35 61° ENE 22:01:33 23° SSE
Cosmos 2360 Rocket 2.9 21:53:39 10° NW 21:59:02 45° WSW 22:02:32 20° S
H-2A R/B 2.9 21:59:14 26° SE 22:01:27 55° ENE 22:05:39 10° N
GP-B 3.1 21:57:46 10° N 22:02:12 75° E 22:04:27 28° S
Cosmos 839 Rocket 4.2 21:55:56 10° NW 22:02:52 69° WSW 22:06:44 24° SSE
ATLAS 2AS CENTAUR R/B 3.0 22:01:03 10° NW 22:07:36 51° WSW 22:11:32 23° S
SL-16 R/B 4.1 22:03:41 10° NW 22:07:40 20° W 22:11:39 10° SW
Cosmos 2333 Rocket 3.0 22:02:19 10° NW 22:07:42 42° WSW 22:11:07 21° SSW
Cosmos 1908 Rocket 3.6 22:04:34 10° NNW 22:08:56 75° W 22:11:05 29° S
Cosmos 1782 Rocket 3.7 22:07:13 10° N 22:11:31 62° ENE 22:13:29 30° SSE
BREEZE-M DEB (TANK) 3.5 22:10:46 10° W 22:13:41 82° N 22:21:58 10° E
Okean 1-7 3.4 22:13:21 21° SSW 22:16:09 59° WNW 22:20:26 10° N
Atlas Centaur 2 4.4 22:12:33 10° SW 22:16:48 15° SSW 22:16:48 15° SSW
Cosmos 1408 2.7 22:22:39 37° ESE 22:22:53 37° E 22:25:41 10° NNE
BlueWalker 3 2.9 22:24:28 28° ESE 22:24:28 28° ESE 22:27:03 10° ENE
Cosmos 1242 Rocket 1.9 22:23:20 56° SW 22:23:46 73° W 22:26:32 10° N
BREEZE-M DEB (TANK) 3.2 22:19:55 10° WNW 22:23:54 38° N 22:25:58 10° ENE
MINOTAUR 4 R/B 3.8 22:22:30 10° N 22:25:24 63° WNW 22:26:10 41° SW
Cosmos 405 Rocket 4.4 22:25:11 10° NNE 22:28:14 23° ENE 22:29:56 17° ESE
Cosmos 1570 Rocket 4.1 22:26:23 10° NNW 22:31:45 75° WSW 22:34:28 30° S
Cosmos 1300 Rocket 3.4 22:27:49 10° N 22:32:09 84° ENE 22:33:55 35° SSE
Cosmos 2237 Rocket 3.1 22:27:22 10° NNW 22:32:46 43° NE 22:37:15 14° ESE
USA 281 3.6 22:28:55 24° S 22:32:50 53° WSW 22:39:17 10° NNW
Cosmos 2322 3.7 22:27:27 10° NNW 22:33:09 75° WSW 22:36:10 29° SSE
Cosmos 1238 4.3 22:30:04 10° NNW 22:33:11 78° W 22:34:07 44° S
H-2A R/B 3.6 22:30:58 10° NE 22:34:13 21° E 22:35:22 19° ESE
ALOS 2 2.7 22:32:43 32° SSE 22:34:41 72° ENE 22:39:05 10° N
Cosmos 371 Rocket 3.9 22:38:27 30° SSE 22:40:05 40° ESE 22:44:35 10° NE
Cosmos 2227 Rocket 3.9 22:38:35 15° ESE 22:40:26 17° E 22:43:57 10° ENE
CZ-3 Stage 3 4.4 22:15:13 10° W 22:40:30 31° SW 22:45:18 23° S
CZ-4C R/B 2.5 22:42:24 30° SE 22:43:29 33° ESE 22:48:19 10° NE
BREEZE-M DEB (TANK) 3.4 22:45:04 41° SE 22:45:04 41° SE 22:49:08 10° ENE
Cosmos 1703 3.6 22:44:41 38° SE 22:45:33 47° E 22:49:08 10° NNE
Cosmos 1980 4.2 22:40:09 10° NNW 22:45:44 55° NE 22:49:45 19° SE
Cosmos 1709 Rocket 4.0 22:45:06 27° S 22:48:48 78° E 22:55:11 10° NNE
Cosmos 2322 Rocket 4.3 22:48:19 10° WNW 22:51:12 14° W 22:54:04 10° SW
Spot 4 4.1 22:49:10 31° SSW 22:51:18 59° WSW 22:56:05 10° NNW
NOSS 0 Rocket 3.9 22:48:45 10° NNW 22:55:02 88° WSW 22:58:44 26° SSE
Cosmos 158 Rocket 4.1 22:50:33 10° NNW 22:55:51 67° WSW 22:58:13 32° S
Cosmos 2242 Rocket 3.6 22:57:30 34° SSW 22:59:28 84° WNW 23:04:04 10° N
Cosmos 2297 Rocket 2.7 22:57:55 29° SSE 23:00:12 43° ESE 23:05:31 10° NE
EXPRESS MD2 3.9 22:58:38 10° WNW 22:59:34 22° WNW 22:59:34 22° WNW
Meteor 2-5 Rocket 3.9 22:57:47 29° S 23:00:49 65° E 23:06:37 10° NNE
Cosmos 1455 4.2 22:59:51 10° NW 23:02:03 16° W 23:03:18 14° WSW
Cosmos 2208 Rocket 4.3 22:58:40 10° NNW 23:03:44 53° WSW 23:05:55 31° SSW
GEOS 3 Rocket 4.3 22:59:57 10° NE 23:04:42 36° ESE 23:06:13 30° SSE
USA 234 4.4 22:58:53 10° ENE 23:05:04 46° N 23:11:14 10° W
Cosmos 1892 3.8 23:06:43 25° ESE 23:07:23 27° E 23:10:25 10° NNE
SL-4 R/B 2.0 23:03:46 10° WNW 23:07:50 88° NNE 23:12:04 10° ESE
Cosmos 773 Rocket 3.9 23:02:48 10° NNW 23:07:58 88° ENE 23:10:31 31° SSE
COSMOS 2428 3.2 23:07:51 10° NW 23:13:17 47° WSW 23:15:45 29° SSW
CENTAUR R/B 3.7 23:12:45 20° SE 23:14:41 23° ESE 23:19:43 10° ENE
Cosmos 2098 Rocket 4.1 23:08:09 10° N 23:14:47 90° WNW 23:18:28 28° S
COSMOS 2455 2.8 23:12:16 26° SSW 23:15:44 76° ESE 23:21:48 10° NE
NOSS 8 (H) 4.2 23:15:28 50° SSW 23:16:14 75° SE 23:19:18 10° NE
ATLAS CENTAUR R/B 3.9 23:14:47 10° WNW 23:17:11 17° NNW 23:19:38 10° NNE
Cosmos 1503 Rocket 4.1 23:15:43 32° S 23:18:08 66° ESE 23:23:25 10° NNE
Cosmos 2219 Rocket 3.8 23:14:41 10° NW 23:18:50 21° W 23:21:08 17° SW
Cosmos 1777 Rocket 4.2 23:18:39 32° S 23:20:55 58° ESE 23:26:07 10° NNE
SJ 16-02 3.9 23:18:28 10° W 23:21:18 17° NW 23:24:09 10° N
PSLV R/B 3.6 23:27:12 10° N 23:31:26 72° WNW 23:33:06 35° SSW
Cosmos 332 Rocket 4.3 23:31:18 31° SSE 23:33:08 46° ESE 23:37:49 10° NNE
Cosmos 304 Rocket 3.7 23:31:07 32° SSW 23:33:19 84° WNW 23:38:07 10° NNE
Cosmos 2263 Rocket 4.0 23:33:49 14° SE 23:36:18 18° E 23:39:57 10° ENE
H-2A R/B 4.5 23:35:13 15° WSW 23:36:41 18° W 23:39:36 10° NW
Cosmos 1174 4.1 23:32:29 10° NW 23:37:38 80° NE 23:39:54 27° SE
Okean 1 Rocket 3.2 23:36:50 10° N 23:41:10 66° ENE 23:43:05 32° SSE
Cosmos 2181 Rocket 4.1 23:40:08 10° NNW 23:46:16 66° W 23:49:34 28° SSW
Cosmos 1825 1.8 23:47:12 52° S 23:47:56 78° E 23:51:22 10° NNE
Helios 1A Rocket 4.2 23:46:37 16° ESE 23:49:00 31° ENE 23:52:24 10° N
